• In Hungary
  • List of Countries
  • For 7 days
  • Water Temperature
  • Satellite Maps
  • Weather Map
  • News
  • Weather Widgets
  • user-avatar
    Login

    Hourly Weather Greensboro

    Today, 17 December, Sunday

    Time Temperature Precipitation Wind Pressure Humidity
    00:00 +2°C° 0 mm 1 mps 746 mmHg 68%
    01:00 +1°C° 0 mm 2 mps 746 mmHg 70%
    02:00 +1°C° 0 mm 2 mps 746 mmHg 71%
    03:00 +2°C° 0 mm 1 mps 746 mmHg 72%
    04:00 +1°C° 0 mm 1 mps 746 mmHg 72%
    05:00 +2°C° 0 mm 1 mps 746 mmHg 72%
    06:00 +2°C° 0 mm 1 mps 746 mmHg 72%
    07:00 +2°C° 0 mm 1 mps 746 mmHg 71%
    08:00 +3°C° 0 mm 1 mps 746 mmHg 65%
    09:00 +5°C° 0 mm 1 mps 746 mmHg 59%
    10:00 +7°C° 0 mm 1 mps 746 mmHg 53%
    11:00 +9°C° 0 mm 1 mps 746 mmHg 50%
    12:00 +10°C° 0 mm 1 mps 746 mmHg 47%
    13:00 +12°C° 0 mm 2 mps 746 mmHg 43%
    14:00 +10°C° 0.2 mm 2 mps 746 mmHg 52%
    15:00 +8°C° 0.2 mm 2 mps 745 mmHg 61%
    16:00 +8°C° 0.2 mm 1 mps 744 mmHg 69%
    17:00 +8°C° 0 mm 1 mps 745 mmHg 70%
    18:00 +7°C° 0 mm 1 mps 745 mmHg 71%
    19:00 +7°C° 0 mm 1 mps 745 mmHg 72%
    20:00 +7°C° 0 mm 1 mps 745 mmHg 73%
    21:00 +6°C° 0 mm 1 mps 745 mmHg 74%
    22:00 +6°C° 0 mm 1 mps 745 mmHg 75%
    23:00 +6°C° 0 mm 1 mps 745 mmHg 77%

    Tomorrow, 18 December, Monday

    Time Temperature Precipitation Wind Pressure Humidity
    00:00 +4°C° 0 mm 2 mps 745 mmHg 78%
    01:00 +4°C° 0 mm 2 mps 745 mmHg 80%
    02:00 +3°C° 0 mm 2 mps 744 mmHg 82%
    03:00 +3°C° 0 mm 2 mps 744 mmHg 84%
    04:00 +3°C° 0 mm 2 mps 744 mmHg 86%
    05:00 +3°C° 0 mm 2 mps 744 mmHg 87%
    06:00 +3°C° 0 mm 2 mps 744 mmHg 88%
    07:00 +4°C° 0 mm 1 mps 745 mmHg 89%
    08:00 +6°C° 0 mm 1 mps 745 mmHg 83%
    09:00 +8°C° 0 mm 1 mps 745 mmHg 77%
    10:00 +10°C° 0 mm 1 mps 745 mmHg 71%
    11:00 +12°C° 0 mm 1 mps 745 mmHg 68%
    12:00 +14°C° 0 mm 1 mps 744 mmHg 64%
    13:00 +16°C° 0 mm 2 mps 743 mmHg 60%
    14:00 +15°C° 0 mm 2 mps 743 mmHg 63%
    15:00 +15°C° 0 mm 2 mps 743 mmHg 66%
    16:00 +15°C° 0 mm 1 mps 743 mmHg 69%
    17:00 +13°C° 0 mm 1 mps 743 mmHg 75%
    18:00 +12°C° 0 mm 2 mps 743 mmHg 82%
    19:00 +9°C° 0 mm 2 mps 743 mmHg 89%
    20:00 +10°C° 0 mm 1 mps 743 mmHg 90%
    21:00 +10°C° 0 mm 1 mps 743 mmHg 91%
    22:00 +10°C° 0 mm 1 mps 743 mmHg 92%
    23:00 +10°C° 0 mm 1 mps 743 mmHg 92%

    Day after tomorrow, 19 December, Tuesday

    Time Temperature Precipitation Wind Pressure Humidity
    00:00 +9°C° 0 mm 1 mps 743 mmHg 92%
    01:00 +9°C° 0 mm 1 mps 743 mmHg 92%
    02:00 +9°C° 0 mm 1 mps 743 mmHg 91%
    03:00 +9°C° 0 mm 1 mps 743 mmHg 90%
    04:00 +9°C° 0 mm 1 mps 743 mmHg 90%
    05:00 +8°C° 0 mm 1 mps 743 mmHg 90%
    06:00 +8°C° 0 mm 1 mps 743 mmHg 90%
    07:00 +8°C° 0 mm 1 mps 743 mmHg 91%
    08:00 +9°C° 0 mm 1 mps 744 mmHg 84%
    09:00 +10°C° 0 mm 2 mps 744 mmHg 77%
    10:00 +13°C° 0 mm 2 mps 744 mmHg 70%
    11:00 +14°C° 0 mm 2 mps 744 mmHg 64%
    12:00 +16°C° 0 mm 3 mps 743 mmHg 57%
    13:00 +18°C° 0 mm 3 mps 742 mmHg 50%
    14:00 +18°C° 0 mm 3 mps 742 mmHg 52%
    15:00 +18°C° 0 mm 2 mps 741 mmHg 54%
    16:00 +17°C° 0 mm 2 mps 741 mmHg 56%
    17:00 +16°C° 0 mm 2 mps 741 mmHg 60%
    18:00 +14°C° 0 mm 2 mps 741 mmHg 64%
    19:00 +13°C° 0 mm 2 mps 741 mmHg 69%
    20:00 +13°C° 0 mm 2 mps 741 mmHg 69%
    21:00 +13°C° 0 mm 2 mps 741 mmHg 69%
    22:00 +13°C° 0 mm 2 mps 741 mmHg 70%
    23:00 +13°C° 0 mm 2 mps 741 mmHg 71%

    20 December, Wednesday

    Time Temperature Precipitation Wind Pressure Humidity
    00:00 +13°C° 0 mm 2 mps 741 mmHg 73%
    01:00 +12°C° 0 mm 2 mps 740 mmHg 75%
    02:00 +12°C° 0.1 mm 1 mps 740 mmHg 76%
    03:00 +12°C° 0.1 mm 1 mps 740 mmHg 78%
    04:00 +12°C° 0.1 mm 1 mps 740 mmHg 79%
    05:00 +12°C° 1 mm 1 mps 740 mmHg 83%
    06:00 +12°C° 1 mm 1 mps 740 mmHg 88%
    07:00 +12°C° 1 mm 1 mps 740 mmHg 92%
    08:00 +12°C° 1.6 mm 1 mps 740 mmHg 93%
    09:00 +12°C° 1.6 mm 1 mps 740 mmHg 94%
    10:00 +12°C° 1.6 mm 1 mps 740 mmHg 95%
    11:00 +12°C° 2.2 mm 1 mps 740 mmHg 93%
    12:00 +12°C° 2.2 mm 2 mps 739 mmHg 90%
    13:00 +12°C° 2.2 mm 2 mps 739 mmHg 88%
    14:00 +12°C° 0.4 mm 2 mps 739 mmHg 87%
    15:00 +10°C° 0.4 mm 2 mps 739 mmHg 86%
    16:00 +10°C° 0.4 mm 3 mps 739 mmHg 84%
    17:00 +10°C° 0.2 mm 2 mps 739 mmHg 84%
    18:00 +9°C° 0.2 mm 2 mps 739 mmHg 84%
    19:00 +9°C° 0.2 mm 2 mps 740 mmHg 84%
    20:00 +9°C° 0.1 mm 2 mps 740 mmHg 86%
    21:00 +8°C° 0.1 mm 2 mps 740 mmHg 88%
    22:00 +8°C° 0.1 mm 2 mps 740 mmHg 90%
    23:00 +8°C° 0.1 mm 2 mps 740 mmHg 90%

    21 December, Thursday

    Time Temperature Precipitation Wind Pressure Humidity
    00:00 +8°C° 0.1 mm 3 mps 740 mmHg 90%
    01:00 +7°C° 0.1 mm 3 mps 740 mmHg 89%
    02:00 +5°C° 0.1 mm 3 mps 741 mmHg 87%
    03:00 +5°C° 0.1 mm 3 mps 741 mmHg 85%
    04:00 +4°C° 0.1 mm 3 mps 741 mmHg 82%
    05:00 +3°C° 0 mm 3 mps 742 mmHg 80%
    06:00 +2°C° 0 mm 3 mps 742 mmHg 78%
    07:00 +2°C° 0 mm 2 mps 743 mmHg 76%
    08:00 +2°C° 0 mm 3 mps 743 mmHg 73%
    09:00 +3°C° 0 mm 3 mps 744 mmHg 69%
    10:00 +3°C° 0 mm 3 mps 745 mmHg 65%
    11:00 +5°C° 0 mm 3 mps 744 mmHg 61%
    12:00 +7°C° 0 mm 2 mps 744 mmHg 57%
    13:00 +8°C° 0 mm 2 mps 744 mmHg 53%
    14:00 +8°C° 0 mm 2 mps 743 mmHg 54%
    15:00 +8°C° 0 mm 2 mps 743 mmHg 55%
    16:00 +8°C° 0 mm 2 mps 743 mmHg 55%
    17:00 +8°C° 0 mm 1 mps 744 mmHg 60%
    18:00 +7°C° 0 mm 1 mps 744 mmHg 65%
    19:00 +6°C° 0 mm 1 mps 745 mmHg 69%
    20:00 +6°C° 0 mm 1 mps 745 mmHg 69%
    21:00 +6°C° 0 mm 1 mps 745 mmHg 68%
    22:00 +6°C° 0 mm 1 mps 746 mmHg 67%
    23:00 +6°C° 0 mm 1 mps 746 mmHg 67%

    22 December, Friday

    Time Temperature Precipitation Wind Pressure Humidity
    00:00 +6°C° 0 mm 1 mps 746 mmHg 67%
    01:00 +6°C° 0 mm 1 mps 746 mmHg 67%
    02:00 +6°C° 0 mm 1 mps 745 mmHg 68%
    03:00 +6°C° 0 mm 1 mps 745 mmHg 69%
    04:00 +6°C° 0 mm 1 mps 745 mmHg 70%
    05:00 +6°C° 0 mm 1 mps 746 mmHg 71%
    06:00 +6°C° 0 mm 1 mps 746 mmHg 72%
    07:00 +6°C° 0 mm 1 mps 746 mmHg 73%
    08:00 +7°C° 0 mm 1 mps 746 mmHg 72%
    09:00 +8°C° 0 mm 1 mps 747 mmHg 71%
    10:00 +8°C° 0 mm 1 mps 747 mmHg 70%
    11:00 +10°C° 0 mm 1 mps 746 mmHg 69%
    12:00 +11°C° 0 mm 1 mps 746 mmHg 68%
    13:00 +13°C° 0 mm 1 mps 745 mmHg 68%
    14:00 +13°C° 0 mm 1 mps 745 mmHg 70%
    15:00 +13°C° 0 mm 1 mps 745 mmHg 72%
    16:00 +13°C° 0 mm 1 mps 744 mmHg 74%
    17:00 +12°C° 0 mm 1 mps 744 mmHg 79%
    18:00 +11°C° 0 mm 1 mps 745 mmHg 84%
    19:00 +10°C° 0 mm 1 mps 745 mmHg 89%
    20:00 +10°C° 0.9 mm 1 mps 745 mmHg 91%
    21:00 +10°C° 0.9 mm 1 mps 745 mmHg 93%
    22:00 +10°C° 0.9 mm 1 mps 745 mmHg 95%
    23:00 +10°C° 0.9 mm 1 mps 744 mmHg 96%
    Show more